Content
SEND FEEDBACK

Daily
Averages
Monthly
Summary
Philippines

TANQUE, PHILIPPINES


Home > Asia > Philippines
Elevation: 43 feet     Latitude: 14 34N     Longitude: 120 58E

WEATHER
 
SELECT A DAY
Number of Records: 176,944;   Date Range: 7/1/96 - 10/18/14
 
SHARE

PRINT THIS DATA

[ ← Previous Day ]
WEATHER ALMANAC - APRIL 6, 2013
[ Next Day → ]
[ °C ]   °F
Weather ElementAverageHighLow
Temperature85.4 °F91.4 °F (1:00 pm)80.6 °F (5:00 am)
Dewpoint77.5 °F78.8 °F (2:00 am)69 °F (5:00 am)
Humidity76.4 %94 % (5:00 am)59 % (5:00 am)
Barometer29.72 in29.78 in (8:00 am)29.65 in (3:00 pm)
Wind Speed8.5 mph19.6 mph (3:00 pm)
Weather ElementAverage
Visibility6.1 mi
Wind DirectionSSW (209 °)

Weather ElementTotal
Precipitation---
Cooling Degree Days21 (Base 65)
Growing Degree Days36 (Base 50)
Averaged from 31 records on April 6, 2013
WEATHER CONDITIONS BREAKOUT
WIND DIRECTION BREAKOUT
WEATHER BY HOUR - APRIL 6, 2013
[ °C ]   °F
Local TimeTemperatureDewpointHumidityBarometerVisibilityWind DirectionWind SpeedGust SpeedPrecipitationEventsConditions
1:00 AM82.4 °F77.0 °F84 %29.74 in6.2 miVariable2.3 mphScattered Clouds
2:00 AM82.0 °F78.0 °F86 %29.73 in6.0 miWSW (250°)2.2 mphScattered Clouds
2:00 AM82.4 °F78.8 °F89 %29.71 in6.2 miWSW (250°)2.3 mphPartly Cloudy
3:00 AM82.4 °F78.8 °F89 %29.71 in6.2 miVariable2.3 mphPartly Cloudy
4:00 AM84.2 °F78.8 °F84 %29.71 in6.2 miVariable1.2 mphPartly Cloudy
5:00 AM81.0 °F69.0 °F59 %29.72 in6.0 miSSW (210°)2.2 mphPartly Cloudy
5:00 AM80.6 °F78.8 °F94 %29.71 in6.2 miVariable1.2 mphScattered Clouds
6:00 AM80.6 °F78.8 °F94 %29.71 in5.6 miCalmPartly Cloudy
7:00 AM82.4 °F78.8 °F89 %29.74 in6.2 miSSW (210°)2.3 mphPartly Cloudy
8:00 AM84.0 °F78.0 °F78 %29.78 in6.0 miWSW (250°)4.5 mphScattered Clouds
8:00 AM84.2 °F78.8 °F84 %29.77 in6.2 miWSW (250°)5.8 mphPartly Cloudy
9:00 AM87.8 °F77.0 °F70 %29.77 in6.2 miWNW (290°)6.9 mphPartly Cloudy
10:00 AM87.8 °F77.0 °F70 %29.77 in6.2 miWest (280°)10.4 mphPartly Cloudy
11:00 AM89.0 °F78.0 °F63 %29.78 in6.0 miWest (280°)11.2 mphScattered Clouds
11:00 AM89.6 °F78.8 °F70 %29.77 in6.2 miWest (280°)11.5 mphPartly Cloudy
12:00 PM89.6 °F77.0 °F66 %29.74 in6.2 miWest (280°)11.5 mphPartly Cloudy
1:00 PM91.4 °F77.0 °F63 %29.71 in6.2 miWest (270°)16.1 mphPartly Cloudy
2:00 PM90.0 °F77.0 °F59 %6.0 miWSW (250°)6.7 mphScattered Clouds
2:00 PM91.4 °F77.0 °F63 %29.68 in6.2 miWest (270°)18.4 mphPartly Cloudy
3:00 PM89.6 °F78.8 °F70 %29.65 in6.2 miSouth (170°)19.6 mphPartly Cloudy
4:00 PM89.6 °F78.8 °F70 %29.65 in6.2 miWest (260°)18.4 mphPartly Cloudy
5:00 PM88.0 °F77.0 °F63 %29.66 in6.0 miWSW (250°)15.7 mphScattered Clouds
5:00 PM87.8 °F77.0 °F70 %29.65 in6.2 miWSW (250°)16.1 mphPartly Cloudy
6:00 PM86.0 °F78.8 °F79 %29.68 in6.2 miWSW (250°)11.5 mphPartly Cloudy
7:00 PM84.2 °F77.0 °F79 %29.68 in6.2 miWSW (250°)11.5 mphPartly Cloudy
8:00 PM84.0 °F77.0 °F75 %29.71 in6.0 miWSW (250°)13.4 mphScattered Clouds
8:00 PM84.2 °F77.0 °F79 %29.71 in6.2 miWSW (250°)11.5 mphPartly Cloudy
9:00 PM84.2 °F77.0 °F79 %29.74 in6.2 miWSW (250°)11.5 mphPartly Cloudy
10:00 PM82.4 °F77.0 °F84 %29.74 in6.2 miWest (260°)8.1 mphPartly Cloudy
11:00 PM82.0 °F77.0 °F81 %29.75 in6.0 miSSW (210°)2.2 mphScattered Clouds
11:00 PM82.4 °F77.0 °F84 %29.74 in6.2 miSSW (210°)4.6 mphPartly Cloudy
Hourly data recorded from RPLL, located miles away from Tanque, Philippines







STORIES FROM OUR PARTNERS